Location: Hodgeman County Dam
(38.0700°N, 100.0004°W)
Time: 00:42:18
(UTC+00:00)

Daily predictions for brighter satellites

Satellite Brightness Start Highest point End
(mag) Time Altitude Azimuth Time Altitude Azimuth Time Altitude Azimuth
GPS 2-04 Rocket1 4.5 00:02:11 10° SSW 00:04:23 16° SSE 00:06:33 10° ESE
NOAA 12 4.4 00:00:16 10° SE 00:05:17 44° ENE 00:10:19 10° N
Cosmos 1697 Rocket 3.1 00:01:12 10° S 00:06:33 45° ESE 00:11:54 10° NE
ATLAS 5 CENTAUR R/B 2.5 00:02:55 10° NNW 00:08:48 59° NE 00:15:28 10° SE
Cosmos 2278 4.2 00:05:47 10° S 00:10:58 38° ESE 00:16:11 10° NE
Cosmos 1805 Rocket 3.5 00:07:04 10° N 00:11:24 62° E 00:15:44 10° SSE
GEOS 3 Rocket 3.8 00:07:42 10° NNE 00:12:56 77° NW 00:18:12 10° SW
Envisat 3.4 00:08:28 10° SE 00:13:11 41° ENE 00:17:56 10° N
SeaSat 1 3.0 00:10:23 10° ESE 00:14:52 36° ENE 00:19:21 10° N
PSLV R/B 3.1 00:13:10 10° WNW 00:15:36 42° N 00:17:13 17° ENE
YAOGAN 6 3.7 00:13:47 10° ESE 00:16:30 21° ENE 00:19:13 10° NNE
Cosmos 1238 Rocket 4.1 00:19:42 10° NNW 00:23:31 41° W 00:26:45 10° SSW
Cosmos 2034 Rocket 4.4 00:22:11 10° N 00:28:09 41° ENE 00:34:06 10° SSE
NOSS 2-3 (E) 3.5 00:27:04 10° SSW 00:31:18 77° ESE 00:35:45 12° NE
Cosmos 1656 4.2 00:26:06 10° SW 00:31:36 61° WNW 00:37:03 10° NNE
TELKOM 3 2.9 00:32:29 10° NW 00:34:32 45° NE 00:34:43 43° NE
NOSS 3-1 (C) 4.4 00:33:42 10° WSW 00:38:52 42° NW 00:44:46 10° NNE
NOSS 3-1 (A) 3.6 00:33:42 10° SW 00:39:04 65° NW 00:45:15 10° NNE
Cosmos 1633 Rocket 3.1 00:35:33 10° N 00:39:52 53° E 00:44:11 10° SSE
Cosmos 1356 Rocket 4.4 00:35:53 10° SSW 00:39:53 48° WNW 00:43:59 10° N
NOSS 2-3 (D) 3.5 00:36:35 10° SSW 00:40:50 88° ESE 00:44:50 15° NNE
CSL-04 Debris 4.5 00:39:56 10° SE 00:45:05 44° ENE 00:50:16 10° N
Cosmos 2112 Rocket 3.9 00:40:03 10° S 00:45:10 67° ESE 00:50:21 10° NNE
Tsikada Rocket 4.2 00:42:00 10° SSE 00:48:02 48° E 00:54:09 10° NNE
Cosmos 158 Rocket 4.3 00:44:19 10° S 00:49:23 45° ESE 00:52:43 20° NE
Cosmos 1151 Rocket 3.0 00:45:30 10° S 00:49:47 60° E 00:54:06 10° NNE
Sich 1 3.4 00:45:55 10° NNW 00:50:15 65° W 00:54:35 10° S
Cosmos 1328 Rocket 3.5 00:46:38 10° S 00:51:01 69° E 00:55:24 10° NNE
Cosmos 1680 Rocket 3.5 00:46:44 10° SSW 00:51:56 89° WNW 00:57:12 10° NNE
COSMO-SKYMED 1 2.5 00:47:35 10° NNE 00:51:57 87° WNW 00:56:17 10° SSW
Cosmos 1515 Rocket 3.9 00:48:01 10° SSE 00:52:09 41° E 00:54:14 24° NE
Cosmos 1666 Rocket 3.5 00:48:11 10° N 00:52:34 87° W 00:56:53 10° S
Lacrosse 4 Rocket 2.5 00:49:07 10° SW 00:52:59 40° WNW 00:56:50 10° NNE
CZ-4 R/B 4.3 00:52:59 10° SSE 00:57:05 75° ENE 01:01:15 10° N
CZ-4 R/B 1.3 00:54:09 10° SSE 00:58:18 71° ENE 01:02:23 10° N
CSL-04 Rocket 3.6 00:55:44 10° SSE 01:00:59 59° ENE 01:06:13 10° N
BREEZE-M DEB (TANK) 4.4 00:57:21 10° SSW 01:01:53 49° ESE 01:11:18 21° ENE
BREEZE-M R/B 4.1 00:59:06 10° SSW 01:03:49 26° SE 01:04:05 26° SE
SL-16 R/B 3.8 01:02:30 10° SSE 01:04:18 17° SE 01:04:18 17° SE
Cosmos 1980 Rocket 2.1 01:05:31 10° SSW 01:11:09 86° ESE 01:15:14 20° NNE
YAOGAN 1 2.4 01:10:08 10° SSE 01:14:27 83° ENE 01:18:47 10° N
Cosmos 2322 Rocket 4.2 01:11:44 10° SSE 01:12:24 13° SE 01:12:24 13° SE
ATLAS 5 CENTAUR R/B 4.3 01:15:27 10° SSE 01:15:40 11° SSE 01:15:40 11° SSE
Cosmos 2297 Rocket 3.9 01:14:43 10° NW 01:19:45 34° WSW 01:24:46 10° SSW
Cosmos 2227 Rocket 3.7 01:14:46 10° NW 01:19:55 37° WSW 01:25:02 10° S
Cosmos 1470 Rocket 3.5 01:19:08 10° N 01:23:39 90° NNE 01:28:07 10° S
Cosmos 1933 3.3 01:20:20 10° S 01:24:05 75° SSE 01:24:05 75° SSE
Cosmos 1624 Rocket 3.9 01:21:18 10° NNW 01:26:37 62° ENE 01:26:59 60° E
Cosmos 2056 Rocket 3.5 01:22:00 10° N 01:26:43 58° NE 01:26:43 58° NE
Cosmos 724 4.1 01:30:54 10° NNW 01:36:46 88° ENE 01:38:23 50° SSE
Cosmos 2263 Rocket 3.8 01:35:59 10° N 01:37:50 20° N 01:37:50 20° N
Cosmos 1932 4.4 01:35:04 10° NNW 01:41:39 81° ENE 01:43:18 53° SE
SL-8 R/B 4.2 01:47:17 10° SW 01:51:04 55° SW 01:51:04 55° SW
SeaSat 1 4.4 01:48:14 10° SSW 01:52:22 27° WSW 01:56:32 10° NW
Meteor 1-26 Rocket 4.4 01:55:33 10° SSW 02:01:31 77° W 02:01:54 74° NW
USA 215 4.1 02:08:34 36° N 02:08:34 36° N 02:13:03 10° NW
SL-16 R/B 4.5 02:44:57 10° SW 02:46:15 17° SW 02:46:15 17° SW
Cosmos 1980 Rocket 3.9 10:07:23 29° ENE 10:07:23 29° ENE 10:11:26 10° ESE
Cosmos 1697 Rocket 4.2 10:48:59 24° S 10:48:59 24° S 10:51:09 10° SSE
Cosmos 2360 4.5 10:47:22 64° SE 10:47:22 64° SE 10:52:13 10° SSE
Cosmos 2278 4.3 10:52:54 46° S 10:52:54 46° S 10:56:50 10° SSE
OAO 3 Rocket 3.8 11:00:04 52° SE 11:00:04 52° SE 11:04:01 10° E
PAYLOAD A 4.1 10:56:06 10° NNE 11:00:57 73° N 11:00:57 73° N
Cosmos 839 Rocket 4.5 11:04:12 47° NNW 11:04:12 47° NNW 11:09:25 10° NNE
STARLINK-41 4.5 11:09:47 46° SE 11:09:51 46° SE 11:13:50 10° ENE
Cosmos 2082 Rocket 3.8 11:13:09 21° N 11:13:09 21° N 11:15:15 10° N
STARLINK-64 4.4 11:11:27 48° SE 11:11:32 48° SE 11:15:31 10° ENE
STARLINK-70 4.3 11:13:00 49° SE 11:13:10 50° SE 11:17:12 10° ENE
Meteor 2-2 Rocket 4.0 11:11:44 48° NNW 11:13:22 79° W 11:19:00 10° S
STARLINK-68 4.1 11:14:49 55° SE 11:14:56 55° SE 11:18:59 10° ENE
CZ-3B R/B 3.8 11:12:28 13° SSW 11:15:15 16° S 11:18:18 10° SE
Cosmos 2112 Rocket 3.9 11:14:29 63° NNW 11:15:21 83° WSW 11:20:41 10° SSE
Cosmos 158 Rocket 4.2 11:13:44 31° N 11:15:58 62° ENE 11:20:47 10° SSE
ATLAS CENTAUR R/B 3.1 11:11:29 10° S 11:16:01 38° ESE 11:20:31 10° NE
STARLINK-58 4.1 11:16:04 53° SSE 11:16:19 54° SE 11:20:22 10° ENE
Lacrosse 5 3.7 11:19:33 18° N 11:19:33 18° N 11:21:44 10° NNE
STARLINK-62 4.0 11:17:58 57° SSE 11:18:13 59° SE 11:22:18 10° NE
STARLINK-63 4.0 11:19:25 55° SSE 11:19:48 58° SE 11:23:53 10° NE
STARLINK 4.2 11:20:36 47° S 11:21:17 54° SE 11:25:20 10° ENE
Shenzhou-11 Module 4.5 11:23:16 18° ENE 11:23:16 18° ENE 11:24:13 10° ENE
Cosmos 1680 Rocket 3.5 11:21:57 61° WSW 11:21:57 61° WSW 11:27:10 10° S
STARLINK-72 4.0 11:22:27 53° S 11:23:03 60° SE 11:27:09 10° NE
Meteor PRIRODA 4.1 11:20:53 10° NNE 11:24:30 58° E 11:28:04 10° S
STARLINK-59 3.8 11:25:50 57° S 11:26:26 68° SE 11:30:34 10° NE
Cosmos 990 Rocket 4.0 11:27:30 54° WNW 11:27:30 54° WNW 11:32:25 10° N
STARLINK-57 3.8 11:27:27 56° SSW 11:28:09 70° SE 11:32:17 10° NE
CZ-2C R/B 2.5 11:26:22 10° N 11:30:28 50° NW 11:30:28 50° NW
STARLINK-28 3.6 11:30:38 56° SSW 11:31:25 76° SE 11:35:34 10° NE
Cosmos 2151 3.2 11:27:18 10° S 11:31:34 69° E 11:35:52 10° NNE
STARLINK-53 3.6 11:31:24 55° SSW 11:32:13 77° SE 11:36:23 10° NE
STARLINK-75 3.5 11:32:22 65° SW 11:32:57 88° SE 11:37:06 10° NE
ASTEX 1 3.3 11:28:59 10° S 11:33:53 65° W 11:38:51 10° NNW
STARLINK-54 3.6 11:33:51 53° SW 11:34:45 82° SE 11:38:54 10° NE
Cosmos 1766 Rocket 3.8 11:30:36 10° S 11:34:53 69° E 11:39:12 10° NNE
Okean 3 Rocket 3.5 11:32:59 10° S 11:37:30 83° W 11:42:01 10° N
COSMOS 2455 3.4 11:33:16 12° NNW 11:38:44 57° ENE 11:44:37 10° SE
STARLINK-37 3.5 11:38:16 49° SW 11:39:20 89° NW 11:43:31 10° NE
STARLINK-55 3.5 11:38:29 47° SW 11:39:39 88° SE 11:43:48 10° NE
STARLINK-24 3.5 11:40:04 46° SW 11:41:14 88° NW 11:45:24 10° NE
STARLINK-34 3.5 11:40:15 47° SW 11:41:23 87° NW 11:45:32 10° NE
SJ 16-02 2.6 11:43:19 25° NNW 11:43:19 25° NNW 11:45:31 10° N
ALOS 3.5 11:37:24 10° NNE 11:41:51 43° E 11:46:17 10° S
STARLINK-81 3.5 11:41:27 40° SW 11:42:53 88° SE 11:47:02 10° NE
CZ-4B R/B 4.2 11:39:43 10° N 11:44:04 49° WNW 11:48:21 10° SSW
Cosmos 2360 Rocket 4.2 11:39:48 10° N 11:44:28 25° ENE 11:49:05 10° ESE
Cosmos 2100 Rocket 3.9 11:38:17 10° S 11:44:29 80° W 11:50:40 10° N
COSMO-SKYMED 1 3.1 11:40:36 10° SSE 11:44:50 58° ENE 11:49:07 10° N
Meteor 2-20 Rocket 4.3 11:39:47 10° N 11:45:58 80° W 11:52:07 10° S
STARLINK-77 3.5 11:44:39 38° SW 11:46:12 86° NW 11:50:21 10° NE
SL-16 R/B 2.7 11:40:41 10° NNW 11:46:18 60° ENE 11:51:54 10° SE
STARLINK-25 3.5 11:46:20 36° SW 11:47:55 84° NW 11:52:05 10° NE
STARLINK-71 3.5 11:48:20 39° WSW 11:49:46 73° NW 11:53:55 10° NE
Cosmos 1980 Rocket 2.7 11:49:15 32° WNW 11:50:26 35° WSW 11:55:32 10° SSW
STARLINK-79 3.5 11:49:26 34° WSW 11:51:10 78° NW 11:55:19 10° NE
STARLINK-78 3.5 11:51:07 33° WSW 11:52:53 75° NW 11:57:02 10° NE
Helios 1A Rocket 4.0 11:50:36 10° NNE 11:54:33 46° E 11:58:27 10° S
Cosmos 1892 2.8 11:50:57 10° SSW 11:54:37 48° W 11:58:18 10° N
